EPGD Weather Reports


time (UTC)temp
C
wind
direction
speed
KPH
gust
KPH
rain 1hr
cm
rain 24hr
cm
rain mn
cm
humidity
%
barometer
mb
20260503020504 15 230 9.7 0.0 0.00 0.00 0.00 41 1015.0
20260503013503 15 230 9.7 0.0 0.00 0.00 0.00 41 1015.0
20260503010504 15 230 11.3 0.0 0.00 0.00 0.00 41 1015.0
20260503003503 15 220 14.5 0.0 0.00 0.00 0.00 41 1015.0
20260503000503 15 230 12.9 0.0 0.00 0.00 0.00 44 1015.0
20260502233503 15 230 8.0 0.0 0.00 0.00 0.00 44 1015.0
20260502230504 11 240 8.0 0.0 0.00 0.00 0.00 54 1016.0
20260502223504 10 280 4.8 0.0 0.00 0.00 0.00 53 1016.0
20260502220504 10 280 8.0 0.0 0.00 0.00 0.00 53 1016.0
20260502213503 10 270 3.2 0.0 0.00 0.00 0.00 53 1016.0
20260502210504 10 1 0.0 0.0 0.00 0.00 0.00 50 1016.0
20260502203503 11 1 0.0 0.0 0.00 0.00 0.00 46 1016.0
20260502200503 11 1 0.0 0.0 0.00 0.00 0.00 46 1016.0
20260502193503 12 1 0.0 0.0 0.00 0.00 0.00 40 1017.0
20260502190504 12 1 0.0 0.0 0.00 0.00 0.00 43 1017.0
20260502183503 13 2 0.0 0.0 0.00 0.00 0.00 38 1017.0
20260502180504 15 30 9.7 0.0 0.00 0.00 0.00 33 1017.0
20260502170504 16 50 12.9 0.0 0.00 0.00 0.00 33 1017.0
20260502163503 17 50 16.1 0.0 0.00 0.00 0.00 31 1017.0
20260502160504 17 60 20.9 0.0 0.00 0.00 0.00 31 1018.0
20260502150504 20 50 20.9 0.0 0.00 0.00 0.00 28 1018.0
20260502130504 25 260 19.3 0.0 0.00 0.00 0.00 19 1019.0
20260502123503 25 230 14.5 0.0 0.00 0.00 0.00 19 1020.0
20260502120504 25 260 11.3 0.0 0.00 0.00 0.00 19 1020.0
20260502113503 23 5 0.0 0.0 0.00 0.00 0.00 20 1021.0
20260502110504 23 260 11.3 0.0 0.00 0.00 0.00 22 1021.0
20260502103504 23 2 0.0 0.0 0.00 0.00 0.00 22 1022.0
20260502100503 22 3 0.0 0.0 0.00 0.00 0.00 25 1022.0
20260502090504 20 240 9.7 0.0 0.00 0.00 0.00 26 1023.0
20260502070504 17 250 11.3 0.0 0.00 0.00 0.00 36 1023.0
20260502063503 15 290 11.3 0.0 0.00 0.00 0.00 41 1023.0
20260502060504 13 270 11.3 0.0 0.00 0.00 0.00 47 1023.0
20260502053504 11 260 9.7 0.0 0.00 0.00 0.00 54 1023.0
20260502050504 10 260 9.7 0.0 0.00 0.00 0.00 57 1023.0
20260502043504 8 250 9.7 0.0 0.00 0.00 0.00 57 1023.0
20260502040504 7 250 11.3 0.0 0.00 0.00 0.00 61 1023.0
20260502033503 6 250 8.0 0.0 0.00 0.00 0.00 60 1023.0
20260502030504 7 4 0.0 0.0 0.00 0.00 0.00 56 1023.0
20260502023503 7 260 4.8 0.0 0.00 0.00 0.00 56 1023.0